Date,TemperatureHighF,TemperatureAvgF,TemperatureLowF,DewpointHighF,DewpointAvgF,DewpointLowF,HumidityHigh,HumidityAvg,HumidityLow,PressureMaxIn,PressureMinIn,WindSpeedMaxMPH,WindSpeedAvgMPH,GustSpeedMaxMPH,PrecipitationSumIn
2013-1-1,48.0,43.0,38.0,42.8,36.4,32.0,84,75,59,30.03,29.88,9,2,13,0.00
2013-1-2,44.0,38.0,32.0,32.0,32.0,32.0,77,46,29,30.15,29.94,8,2,12,0.00
2013-1-3,47.0,35.0,30.0,32.0,32.0,32.0,50,36,25,30.21,30.09,8,2,10,0.00
2013-1-4,44.0,34.3,27.0,32.0,32.0,32.0,42,34,28,30.24,30.15,10,5,15,0.00
2013-1-5,52.0,38.6,29.0,32.0,32.0,32.0,41,31,21,30.32,30.18,10,3,13,0.00
2013-1-6,51.0,40.5,29.0,32.0,32.0,32.0,58,41,29,30.18,30.00,10,2,14,0.00
2013-1-7,50.0,37.1,24.0,32.0,32.0,32.0,56,38,27,30.38,30.12,8,2,12,0.00
2013-1-8,55.0,34.1,19.0,32.0,32.0,32.0,71,53,28,30.38,30.29,6,1,8,0.00
2013-1-9,60.0,45.3,27.0,39.2,33.8,32.0,78,56,36,30.38,30.29,9,2,12,0.00
2013-1-10,61.0,48.6,38.0,32.0,32.0,32.0,48,33,22,30.50,30.38,8,1,10,0.00
2013-1-11,46.0,41.9,39.0,35.6,32.6,32.0,83,58,35,30.41,30.09,6,1,6,0.00
2013-1-12,74.0,54.7,39.0,50.0,44.2,33.8,87,70,36,30.12,30.06,4,0,6,0.00
2013-1-13,69.0,59.8,54.0,60.8,51.8,46.4,92,75,47,30.09,29.97,6,1,8,0.00
2013-1-14,61.0,55.2,48.0,59.0,54.5,48.2,98,94,69,30.21,30.00,9,1,13,0.67
2013-1-15,48.0,40.8,37.0,48.2,40.6,37.4,98,97,89,30.24,30.06,5,2,7,1.69
2013-1-16,46.0,40.5,36.0,46.4,41.1,37.4,98,97,97,30.09,29.88,7,1,11,0.39
2013-1-17,45.0,37.6,32.0,44.6,38.1,32.0,98,98,97,30.12,29.97,9,1,12,1.06
2013-1-18,39.0,32.3,25.0,39.2,33.3,32.0,98,97,88,30.44,30.12,10,2,12,0.08
2013-1-19,50.0,33.5,19.0,50.0,37.5,32.0,98,90,71,30.41,30.06,6,1,8,0.00
2013-1-20,55.0,42.5,28.0,55.4,43.2,32.0,98,98,97,30.06,29.94,13,4,17,0.00
2013-1-21,53.0,38.5,25.0,53.6,39.6,32.0,98,98,97,30.06,29.79,15,4,21,0.00
2013-1-22,31.0,22.2,17.0,32.0,32.0,32.0,97,69,57,30.24,29.94,12,4,17,0.00
2013-1-23,36.0,24.5,13.0,32.0,32.0,32.0,78,63,54,30.27,30.00,12,2,15,0.00
2013-1-24,31.0,25.0,15.0,32.0,32.0,32.0,74,50,32,30.47,29.97,15,4,22,0.00
2013-1-25,23.0,19.1,14.0,32.0,32.0,32.0,64,56,45,30.44,30.03,7,1,10,0.00
2013-1-26,42.0,30.0,19.0,32.0,32.0,32.0,68,58,45,30.35,30.03,10,3,15,0.04
2013-1-27,36.0,27.7,18.0,32.0,32.0,32.0,65,61,55,30.53,30.35,6,1,8,0.00
2013-1-28,51.0,38.0,30.0,48.2,36.4,32.0,92,81,61,30.41,30.12,4,0,5,0.20
2013-1-29,73.0,51.5,33.0,64.4,47.5,32.0,98,85,66,30.15,29.97,9,2,10,0.00
2013-1-30,65.0,59.6,50.0,59.0,54.2,46.4,94,81,68,30.00,29.35,17,5,23,2.99
2013-1-31,50.0,37.3,27.0,50.0,35.7,32.0,96,88,78,29.91,29.35,17,7,26,0.04
2013-2-1,33.0,24.1,15.0,32.0,32.0,32.0,94,63,47,30.32,29.79,17,5,34,0.00
2013-2-2,36.0,23.4,11.0,32.0,32.0,32.0,79,66,54,30.32,29.97,7,1,10,0.00
2013-2-3,40.0,33.3,28.0,32.0,32.0,32.0,80,67,44,29.97,29.79,14,4,23,0.00
2013-2-4,39.0,29.7,23.0,32.0,32.0,32.0,65,51,43,30.09,29.91,12,2,20,0.00
2013-2-5,55.0,40.1,25.0,32.0,32.0,32.0,65,42,20,29.91,29.85,13,3,17,0.00
2013-2-6,53.0,40.2,28.0,32.0,32.0,32.0,54,32,18,30.27,29.91,8,2,10,0.00
2013-2-7,40.0,35.8,32.0,32.0,32.0,32.0,55,35,30,30.32,30.09,9,2,10,0.00
2013-2-8,51.0,37.4,32.0,32.0,32.0,32.0,73,49,24,30.09,29.79,17,4,23,0.55
2013-2-9,49.0,35.7,26.0,32.0,32.0,32.0,30,24,19,30.29,29.97,17,4,27,0.00
2013-2-10,49.0,33.9,20.0,32.0,32.0,32.0,49,31,19,30.41,30.18,7,2,8,0.04
2013-2-11,57.0,45.1,35.0,39.2,33.2,32.0,71,50,21,30.18,29.82,8,1,10,0.04
2013-2-12,59.0,47.3,40.0,32.0,32.0,32.0,26,20,17,30.00,29.88,14,4,21,0.00
2013-2-13,43.0,39.6,34.0,33.8,32.1,32.0,75,51,23,29.91,29.62,10,1,14,0.16
2013-2-14,53.0,38.0,27.0,32.0,32.0,32.0,55,35,21,30.03,29.79,8,2,10,0.00
2013-2-15,61.0,40.1,24.0,32.0,32.0,32.0,59,39,17,30.03,29.85,10,3,17,0.00
2013-2-16,41.0,34.5,25.0,32.0,32.0,32.0,32,26,22,29.97,29.82,10,3,15,0.00
2013-2-17,32.0,24.2,19.0,32.0,32.0,32.0,34,24,21,30.21,29.88,14,6,25,0.00
2013-2-18,54.0,33.1,12.0,32.0,32.0,32.0,37,24,18,30.29,30.12,8,2,11,0.00
2013-2-19,55.0,40.4,33.0,32.0,32.0,32.0,52,30,19,30.12,29.73,16,4,19,0.00
2013-2-20,44.0,34.3,28.0,32.0,32.0,32.0,23,22,20,30.12,29.91,13,5,20,0.00
2013-2-21,50.0,35.2,24.0,32.0,32.0,32.0,24,22,19,30.24,30.06,9,3,13,0.00
2013-2-22,39.0,34.5,30.0,32.0,32.0,32.0,40,29,22,30.29,30.12,7,2,9,0.00
2013-2-23,56.0,41.1,33.0,32.0,32.0,32.0,55,41,26,30.12,29.79,6,1,8,0.00
2013-2-24,56.0,44.5,35.0,32.0,32.0,32.0,61,30,17,30.03,29.79,12,4,18,0.00
2013-2-25,46.0,33.6,24.0,32.0,32.0,32.0,42,28,20,30.18,30.03,6,1,8,0.00
2013-2-26,41.0,34.4,26.0,39.2,34.1,32.0,95,63,31,30.15,29.62,11,2,14,0.75
2013-2-27,52.0,42.6,36.0,48.2,40.6,33.8,97,91,83,29.73,29.59,10,3,14,0.00
2013-2-28,46.0,38.7,34.0,42.8,36.1,32.0,98,87,71,29.79,29.67,11,5,16,0.00
2013-3-1,42.0,36.5,33.0,32.0,32.0,32.0,77,60,41,29.88,29.76,11,2,17,0.00
2013-3-2,39.0,33.8,29.0,32.0,32.0,32.0,52,33,22,29.88,29.79,10,3,14,0.00
2013-3-3,29.0,27.9,26.0,32.0,32.0,32.0,28,26,25,29.88,29.88,7,2,8,0.00
2013-3-9,52.0,41.4,33.0,32.0,32.0,32.0,33,23,18,30.27,30.21,2,0,3,0.00
2013-3-10,68.0,47.5,27.0,32.0,32.0,32.0,51,28,15,30.27,30.15,8,2,10,0.00
2013-3-11,58.0,49.7,40.0,33.8,32.0,32.0,38,25,17,30.18,29.85,9,2,12,0.00
2013-3-12,58.0,51.3,37.0,51.8,39.3,32.0,86,61,38,29.97,29.70,13,4,17,0.75
2013-3-13,50.0,37.9,30.0,32.0,32.0,32.0,73,42,19,30.12,29.94,14,4,22,0.00
2013-3-14,48.0,36.0,26.0,32.0,32.0,32.0,26,22,19,30.18,30.06,14,5,22,0.00
2013-3-15,65.0,46.6,27.0,32.0,32.0,32.0,25,19,15,30.12,29.82,10,3,13,0.00
2013-3-16,78.0,55.5,37.0,35.6,32.3,32.0,57,32,15,29.82,29.56,13,2,17,0.00
2013-3-17,55.0,41.7,34.0,33.8,32.0,32.0,76,58,37,30.18,29.82,8,2,10,0.67
2013-3-18,35.0,32.9,31.0,32.0,32.0,32.0,85,80,76,30.18,29.88,6,1,8,0.28
2013-3-19,61.0,44.8,32.0,39.2,32.7,32.0,87,48,16,30.00,29.76,16,5,24,0.00
2013-3-20,55.0,41.9,28.0,32.0,32.0,32.0,23,20,17,30.03,29.76,13,4,15,0.00
2013-3-21,39.0,32.2,24.0,32.0,32.0,32.0,28,23,21,29.94,29.76,13,5,22,0.00
2013-3-22,50.0,33.6,20.0,32.0,32.0,32.0,25,22,19,30.00,29.88,10,3,13,0.00
2013-3-23,61.0,41.9,25.0,32.0,32.0,32.0,33,23,16,30.00,29.85,8,1,12,0.00
2013-3-24,41.0,34.8,31.0,32.0,32.0,32.0,65,41,21,29.94,29.59,8,2,10,0.00
2013-3-25,45.0,35.1,28.0,32.0,32.0,32.0,68,47,22,29.73,29.53,14,3,17,0.67
2013-3-26,47.0,38.7,32.0,32.0,32.0,32.0,32,27,20,30.06,29.73,11,4,17,0.00
2013-3-27,47.0,37.6,28.0,32.0,32.0,32.0,37,27,19,30.18,30.06,13,3,17,0.00
2013-3-28,53.0,40.6,30.0,32.0,32.0,32.0,39,25,18,30.24,30.15,14,2,23,0.00
2013-3-29,60.0,44.6,30.0,32.0,32.0,32.0,42,25,16,30.27,30.12,10,2,14,0.00
2013-3-30,66.0,47.1,28.0,32.0,32.0,32.0,43,25,15,30.21,30.03,9,1,11,0.00
2013-3-31,58.0,48.4,41.0,46.4,36.1,32.0,74,50,19,30.06,29.76,6,0,6,0.28
2013-4-1,66.0,51.3,37.0,32.0,32.0,32.0,52,30,17,30.00,29.82,15,4,19,0.00
2013-4-2,55.0,44.7,25.0,32.0,32.0,32.0,50,23,17,30.12,30.03,10,3,19,0.00
2013-4-3,57.0,42.7,29.0,32.0,32.0,32.0,23,20,17,30.29,30.12,10,3,15,0.00
2013-4-4,49.0,36.0,31.0,32.0,32.0,32.0,68,31,19,30.35,29.97,7,1,9,0.24
2013-4-5,65.0,46.9,33.0,35.6,32.1,32.0,75,43,15,30.00,29.85,9,2,12,0.55
2013-4-6,64.0,49.9,33.0,32.0,32.0,32.0,40,24,15,30.24,30.00,8,2,10,0.00
2013-4-7,73.0,55.4,36.0,32.0,32.0,32.0,40,23,16,30.21,30.00,10,3,13,0.00
2013-4-8,81.0,62.6,41.0,33.8,32.0,32.0,55,28,14,30.09,29.97,11,2,17,0.00
2013-4-9,88.0,70.0,50.0,35.6,32.2,32.0,48,25,13,30.12,29.97,10,2,13,0.00
2013-4-10,92.0,74.6,55.0,37.4,32.5,32.0,44,22,12,30.03,29.85,10,3,13,0.00
2013-4-11,86.0,71.4,53.0,41.0,33.9,32.0,53,26,13,29.91,29.73,12,3,15,0.00
2013-4-12,77.0,66.2,58.0,59.0,41.8,32.0,84,40,14,29.73,29.59,11,4,17,0.83
2013-4-13,75.0,60.8,48.0,32.0,32.0,32.0,24,17,13,29.94,29.73,11,4,15,0.00
2013-4-14,80.0,62.9,40.0,32.0,32.0,32.0,42,20,13,30.06,29.94,9,2,13,0.00
2013-4-15,66.0,57.3,52.0,46.4,37.8,32.0,74,49,15,30.21,30.00,9,3,10,0.35
2013-4-16,78.0,64.5,56.0,48.2,40.4,33.8,74,44,21,30.21,30.12,8,2,14,0.00
2013-4-17,83.0,68.1,57.0,48.2,40.4,32.0,65,40,16,30.15,30.03,8,1,8,0.00
2013-4-18,78.0,68.4,62.0,50.0,40.8,32.0,62,39,18,30.12,29.94,10,3,16,0.00
2013-4-19,71.0,64.5,51.0,62.6,45.9,32.0,84,51,34,29.94,29.62,11,4,17,0.87
2013-4-20,62.0,51.4,41.0,32.0,32.0,32.0,44,22,16,30.24,29.79,10,4,18,0.00
2013-4-21,59.0,48.8,35.0,32.0,32.0,32.0,38,22,17,30.44,30.24,7,2,10,0.00
2013-4-22,60.0,49.0,33.0,32.0,32.0,32.0,45,25,17,30.41,30.21,10,3,12,0.00
2013-4-23,68.0,56.4,47.0,32.0,32.0,32.0,38,26,17,30.24,30.03,8,2,8,0.12
2013-4-24,76.0,61.2,42.0,37.4,32.5,32.0,56,33,16,30.06,29.82,10,2,17,0.28
2013-4-25,67.0,54.7,41.0,32.0,32.0,32.0,39,22,15,30.21,29.94,11,2,18,0.00
2013-4-26,68.0,54.4,35.0,32.0,32.0,32.0,44,24,15,30.35,30.21,7,1,8,0.00
2013-4-27,70.0,57.9,46.0,32.0,32.0,32.0,44,29,17,30.27,30.15,7,1,9,0.00
2013-4-28,57.0,53.0,50.0,48.2,42.1,32.0,80,66,35,30.15,29.97,10,1,13,0.28
2013-4-29,67.0,56.6,50.0,51.8,43.8,37.4,83,64,34,30.00,29.88,5,0,8,0.04
2013-4-30,65.0,57.5,55.0,46.4,45.2,39.2,69,63,40,30.06,29.94,5,1,6,0.00
2013-5-1,69.0,63.9,57.0,33.8,32.1,32.0,34,23,17,30.24,30.15,8,4,12,0.00
2013-5-2,69.0,60.8,52.0,32.0,32.0,32.0,32,22,17,30.24,30.12,9,3,10,0.00
2013-5-3,65.0,55.1,44.0,37.4,32.2,32.0,58,36,22,30.21,30.06,8,2,12,0.00
2013-5-4,62.0,53.2,46.0,32.0,32.0,32.0,42,33,24,30.12,29.97,10,3,15,0.00
2013-5-5,58.0,52.5,44.0,35.6,32.2,32.0,49,33,25,30.00,29.88,10,4,13,0.00
2013-5-6,56.0,53.5,51.0,55.4,46.8,32.0,94,77,43,29.91,29.73,12,3,14,1.42
2013-5-7,59.0,54.7,50.0,57.2,53.5,48.2,97,95,91,29.79,29.70,5,0,10,2.40
2013-5-8,60.0,53.2,49.0,59.0,52.1,48.2,95,95,94,29.82,29.76,3,0,4,0.28
2013-5-9,76.0,61.5,46.0,73.4,59.7,44.6,96,93,89,29.85,29.76,6,1,10,0.00
2013-5-10,81.0,66.7,52.0,77.0,64.1,51.8,93,89,66,29.85,29.70,8,1,10,0.20
2013-5-11,73.0,64.4,59.0,69.8,62.7,59.0,93,92,90,29.73,29.56,8,0,8,0.08
2013-5-12,64.0,56.6,46.0,60.8,53.9,41.0,93,88,82,29.82,29.62,10,2,14,0.00
2013-5-13,62.0,47.1,36.0,55.4,36.2,32.0,84,65,28,29.94,29.79,9,1,13,0.00
2013-5-14,69.0,55.1,35.0,37.4,32.2,32.0,58,32,15,30.00,29.76,6,1,8,0.00
2013-5-15,89.0,69.9,48.0,32.0,32.0,32.0,37,20,12,29.79,29.59,8,1,10,0.00
2013-5-16,84.0,74.8,62.0,32.0,32.0,32.0,24,15,13,29.73,29.62,10,2,12,0.00
2013-5-17,81.0,70.2,61.0,32.0,32.0,32.0,25,19,14,29.82,29.73,5,1,8,0.00
2013-5-18,68.0,63.9,61.0,42.8,40.3,35.6,48,41,33,29.91,29.15,6,1,8,0.00
2013-5-19,66.0,63.5,62.0,59.0,52.0,42.8,78,66,47,29.21,29.09,5,1,7,1.18
2013-5-20,75.0,68.3,64.0,64.4,61.1,57.2,82,77,69,29.15,29.06,3,0,5,0.20
2013-5-21,83.0,74.1,65.0,71.6,65.0,59.0,84,72,59,29.06,28.94,6,0,8,0.00
2013-5-22,84.0,72.0,61.0,68.0,58.6,48.2,79,63,40,29.03,28.91,7,1,9,0.20
2013-5-23,77.0,67.9,61.0,59.0,52.8,35.6,74,59,31,29.00,28.82,9,0,16,0.28
2013-5-24,62.0,57.9,49.0,50.0,35.9,32.0,65,31,16,29.23,28.88,14,3,22,0.00
2013-5-25,68.0,56.3,41.0,32.0,32.0,32.0,32,19,15,29.29,29.18,10,2,15,0.00
2013-5-26,75.0,62.3,48.0,32.0,32.0,32.0,24,17,13,29.29,29.18,8,1,10,0.00
2013-5-27,73.0,61.9,46.0,32.0,32.0,32.0,28,19,14,29.32,29.21,6,1,8,0.00
2013-5-28,83.0,71.1,56.0,33.8,32.0,32.0,36,21,14,29.23,29.12,7,1,8,0.00
2013-5-29,86.0,72.9,58.0,39.2,34.1,32.0,45,24,13,29.23,29.15,5,1,8,0.00
2013-5-30,87.0,75.3,59.0,41.0,33.8,32.0,45,22,13,29.26,29.21,5,1,7,0.00
2013-5-31,88.0,75.1,60.0,41.0,33.9,32.0,44,23,13,29.23,29.12,6,1,9,0.00
2013-6-1,87.0,75.6,60.0,41.0,34.9,32.0,46,24,13,29.15,29.00,8,1,8,0.00
2013-6-2,83.0,69.7,64.0,51.8,41.5,32.0,57,37,19,29.06,28.94,4,0,5,0.20
2013-6-3,80.0,70.7,63.0,59.0,44.1,32.0,68,41,14,29.03,28.91,8,1,8,0.12
2013-6-4,80.0,70.2,58.0,39.2,34.1,32.0,46,26,14,29.18,29.03,7,1,8,0.00
2013-6-5,75.0,67.9,60.0,42.8,34.1,32.0,44,28,19,29.21,29.09,5,0,6,0.00
2013-6-6,66.0,62.9,59.0,57.2,48.4,35.6,73,59,33,29.09,28.85,5,1,8,2.09
2013-6-7,71.0,67.0,63.0,60.8,58.0,55.4,76,71,62,28.91,28.67,4,0,5,0.16
2013-6-8,78.0,67.9,60.0,57.2,46.7,32.0,72,49,18,29.15,28.85,5,0,7,0.12
2013-6-9,83.0,73.0,62.0,50.0,39.8,32.0,55,33,16,29.21,29.09,8,1,8,0.16
2013-6-10,77.0,69.5,66.0,64.4,58.4,48.2,78,67,49,29.12,28.88,7,1,11,0.67
2013-6-11,81.0,71.7,63.0,66.2,59.7,53.6,81,66,45,29.00,28.91,8,1,13,0.16
2013-6-12,88.0,77.1,63.0,57.2,46.2,32.0,68,38,15,29.00,28.88,6,1,8,0.00
2013-6-13,88.0,74.0,66.0,57.2,46.1,32.0,64,40,13,28.91,28.64,18,1,24,0.31
2013-6-14,77.0,72.3,66.0,42.8,33.4,32.0,36,19,15,29.03,28.88,7,2,10,0.00
2013-6-15,82.0,77.6,67.0,33.8,32.0,32.0,26,16,14,29.18,29.06,6,1,8,0.00
2013-6-16,86.0,79.8,69.0,41.0,33.7,32.0,34,18,13,29.12,29.00,4,1,8,0.00
2013-6-17,83.0,73.7,66.0,51.8,41.8,32.0,53,34,16,29.06,28.97,5,0,9,0.12
2013-6-18,75.0,69.4,65.0,59.0,47.6,32.0,65,46,22,29.00,28.85,6,0,8,0.43
2013-6-19,79.0,69.4,61.0,50.0,40.7,32.0,57,37,17,29.18,28.97,6,1,8,0.16
2013-6-20,78.0,68.9,64.0,53.6,42.6,32.0,63,42,21,29.29,29.18,5,1,7,0.00
2013-6-21,81.0,71.9,59.0,44.6,33.5,32.0,45,23,14,29.32,29.23,5,1,8,0.00
2013-6-22,84.0,72.5,58.0,42.8,34.7,32.0,46,26,14,29.32,29.18,8,1,10,0.00
2013-6-23,87.0,77.0,67.0,50.0,38.4,32.0,48,27,13,29.23,29.15,4,0,7,0.00
2013-6-24,86.0,76.3,66.0,48.2,39.9,32.0,48,29,13,29.23,29.12,4,0,5,0.00
2013-6-25,90.0,78.6,67.0,48.2,38.7,32.0,46,26,12,29.15,29.03,5,0,7,0.00
2013-6-26,90.0,75.1,68.0,53.6,42.1,32.0,58,34,13,29.06,28.94,9,0,19,0.24
2013-6-27,84.0,74.1,67.0,55.4,42.2,32.0,62,34,16,28.97,28.76,5,0,7,0.00
2013-6-28,89.0,78.5,68.0,46.4,36.4,32.0,40,22,13,28.79,28.59,6,1,8,0.00
2013-6-29,84.0,73.9,64.0,57.2,36.1,32.0,74,27,14,28.79,28.64,9,1,12,1.77
2013-6-30,82.0,71.3,64.0,71.6,62.8,57.2,82,74,66,28.94,28.76,10,1,14,0.00
2013-7-1,79.0,72.1,67.0,68.0,63.3,59.0,80,73,64,29.03,28.91,6,1,10,0.20
2013-7-2,75.0,70.5,69.0,64.4,62.4,59.0,81,74,63,29.21,29.03,6,1,8,0.83
2013-7-3,75.0,71.1,69.0,68.0,64.8,60.8,84,79,68,29.26,29.18,5,0,8,1.18
2013-7-4,80.0,73.8,69.0,71.6,66.3,60.8,83,76,69,29.29,29.21,8,1,9,0.31
2013-7-5,82.0,74.0,69.0,73.4,66.8,62.6,85,77,63,29.29,29.21,6,0,8,0.24
2013-7-6,83.0,75.8,69.0,71.6,66.1,59.0,85,72,52,29.26,29.15,5,0,5,0.00
2013-7-7,85.0,73.5,68.0,64.4,58.6,42.8,73,60,32,29.21,29.12,7,0,8,0.55
2013-7-8,83.0,75.0,66.0,60.8,45.8,32.0,71,41,16,29.21,29.12,5,0,8,0.00
2013-7-9,85.0,76.0,68.0,51.8,44.4,33.8,55,35,16,29.18,29.09,3,0,5,0.00
2013-7-10,87.0,74.5,69.0,55.4,49.6,37.4,60,43,18,29.12,29.00,3,0,5,0.28
2013-7-11,84.0,73.5,68.0,60.8,50.2,35.6,66,47,19,29.03,28.94,5,0,8,0.16
2013-7-12,73.0,68.3,65.0,60.8,56.8,51.8,76,66,55,29.12,28.94,6,1,12,2.09
2013-7-13,78.0,71.0,66.0,62.6,57.6,51.8,72,62,43,29.26,29.09,6,1,8,0.00
2013-7-14,84.0,76.2,70.0,62.6,48.4,32.0,67,42,16,29.38,29.26,8,2,8,0.00
2013-7-15,89.0,79.7,69.0,53.6,40.7,32.0,52,28,12,29.38,29.29,4,0,6,0.00
2013-7-16,90.0,78.3,69.0,50.0,40.3,32.0,48,28,13,29.32,29.23,6,1,11,0.00
2013-7-17,91.0,78.1,72.0,60.8,45.5,33.8,64,35,15,29.29,29.21,10,1,13,0.47
2013-7-18,89.0,79.5,70.0,60.8,49.1,33.8,67,39,15,29.23,29.09,4,0,7,0.00
2013-7-19,92.0,80.7,71.0,55.4,44.7,32.0,53,31,12,29.15,29.00,4,0,7,0.00
2013-7-20,89.0,78.4,71.0,57.2,45.3,32.0,56,34,13,29.03,28.94,8,0,10,0.24
2013-7-21,88.0,75.5,69.0,57.2,49.6,33.8,59,43,15,29.06,28.97,10,0,15,0.39
2013-7-22,85.0,75.8,70.0,59.0,48.9,35.6,63,41,18,29.03,28.85,4,0,7,0.00
2013-7-23,88.0,78.1,70.0,51.8,39.4,32.0,45,26,13,28.88,28.79,6,1,10,0.00
2013-7-24,87.0,76.4,68.0,46.4,37.6,32.0,44,26,13,28.97,28.79,5,1,7,0.00
2013-7-25,81.0,72.9,66.0,42.8,34.3,32.0,37,23,14,29.12,28.94,5,0,8,0.00
2013-7-26,81.0,72.8,63.0,46.4,37.7,32.0,48,29,14,29.18,29.06,5,0,6,0.00
2013-7-27,72.0,69.2,68.0,53.6,48.2,41.0,56,47,32,29.12,29.00,3,0,3,0.20
2013-7-28,83.0,72.5,66.0,53.6,43.6,32.0,58,38,14,29.06,28.94,3,0,4,0.00
2013-7-29,78.0,71.0,62.0,46.4,33.9,32.0,45,24,15,29.23,29.06,6,1,10,0.00
2013-7-30,81.0,69.3,56.0,39.2,33.3,32.0,41,26,14,29.29,29.21,4,0,5,0.00
2013-7-31,76.0,67.7,63.0,46.4,40.8,32.0,48,38,21,29.21,29.06,3,0,4,0.04
2013-8-1,83.0,73.1,65.0,55.4,41.3,32.0,61,35,14,29.06,28.91,6,1,10,0.04
2013-8-2,83.0,73.5,62.0,44.6,36.3,32.0,47,27,14,29.09,28.97,4,0,8,0.00
2013-8-3,82.0,71.2,62.0,44.6,37.0,32.0,41,29,14,29.06,28.97,3,0,7,0.00
2013-8-4,83.0,73.1,65.0,44.6,35.4,32.0,43,25,14,29.12,28.97,7,1,12,0.00
2013-8-5,79.0,69.6,59.0,39.2,33.4,32.0,40,25,15,29.18,29.06,5,1,8,0.00
2013-8-6,82.0,72.0,67.0,46.4,38.8,33.8,44,30,19,29.09,29.03,4,1,6,0.00
2013-8-7,80.0,72.0,68.0,59.0,47.4,35.6,64,42,22,29.12,29.09,4,0,5,0.20
2013-8-8,81.0,72.7,69.0,60.8,55.0,41.0,68,55,24,29.12,29.03,6,0,6,0.35
2013-8-9,87.0,76.5,69.0,64.4,51.3,35.6,69,45,18,29.06,29.00,5,0,7,0.04
2013-8-10,87.0,78.3,70.0,53.6,44.9,33.8,51,33,16,29.15,29.06,4,0,6,0.00
2013-8-11,84.0,75.4,70.0,57.2,48.6,35.6,61,40,18,29.18,29.06,4,0,8,0.28
2013-8-12,86.0,76.8,68.0,57.2,45.8,32.0,65,38,13,29.12,29.00,5,0,7,0.00
2013-8-13,79.0,72.6,69.0,53.6,47.9,35.6,50,41,26,29.03,28.85,5,0,8,0.24
2013-8-14,73.0,68.7,61.0,41.0,33.7,32.0,37,23,14,29.18,28.94,7,1,10,0.00
2013-8-15,75.0,63.9,53.0,33.8,32.0,32.0,42,26,14,29.23,29.15,6,0,8,0.00
2013-8-16,77.0,64.2,51.0,35.6,32.3,32.0,46,29,15,29.23,29.18,6,0,7,0.00
2013-8-17,71.0,62.6,55.0,46.4,35.9,32.0,54,36,17,29.26,29.23,6,1,8,0.12
2013-8-18,69.0,64.2,61.0,57.2,54.3,46.4,75,68,54,29.26,29.21,5,0,8,1.26
2013-8-19,73.0,66.7,63.0,62.6,59.1,55.4,80,75,66,29.26,29.12,2,0,4,0.04
2013-8-20,80.0,72.3,64.0,68.0,62.8,57.2,83,71,60,29.23,29.15,4,0,6,0.00
2013-8-21,82.0,73.7,66.0,62.6,52.9,37.4,72,51,21,29.26,29.15,3,0,4,0.04
2013-8-22,85.0,75.0,64.0,55.4,40.9,32.0,56,32,13,29.18,29.06,4,0,7,0.00
2013-8-23,82.0,70.0,62.0,50.0,44.2,32.0,50,40,17,29.18,29.03,10,0,17,0.16
2013-8-24,75.0,61.7,59.0,46.4,43.8,33.8,57,52,22,29.29,29.18,0,0,3,0.00
2013-8-25,77.0,68.7,61.0,37.4,33.5,32.0,39,25,15,29.38,29.32,4,0,4,0.00
2013-8-26,81.0,69.0,57.0,42.8,35.3,32.0,48,30,14,29.38,29.12,5,0,6,0.00
2013-8-27,86.0,73.7,62.0,48.2,39.3,32.0,49,31,13,29.15,29.00,4,0,7,0.00
2013-8-28,80.0,73.4,70.0,57.2,48.3,39.2,57,41,30,29.06,28.91,4,0,5,0.16
2013-8-29,84.0,75.6,69.0,53.6,44.0,33.8,52,34,19,29.09,28.88,5,1,8,0.00
2013-8-30,83.0,73.8,66.0,53.6,42.9,32.0,55,36,16,29.12,28.97,4,0,5,0.04
2013-8-31,88.0,73.9,66.0,50.0,43.8,32.0,53,36,13,29.00,28.91,6,0,8,0.00
2013-9-1,88.0,73.8,64.0,55.4,45.0,33.8,61,39,15,28.94,28.85,5,0,8,0.31
2013-9-2,85.0,75.1,66.0,59.0,45.6,32.0,65,40,13,28.94,28.85,5,0,8,0.00
2013-9-3,86.0,75.1,66.0,50.0,38.3,32.0,48,28,13,29.03,28.85,7,1,10,0.00
2013-9-4,80.0,69.8,57.0,39.2,33.5,32.0,42,25,14,29.15,29.03,4,0,6,0.00
2013-9-5,82.0,70.5,60.0,41.0,34.4,32.0,45,26,14,29.18,29.09,6,1,9,0.00
2013-9-6,74.0,64.2,58.0,39.2,34.9,32.0,45,33,16,29.26,29.18,5,0,6,0.00
2013-9-8,83.0,76.7,69.0,46.4,38.5,32.0,43,26,14,29.06,28.97,4,0,5,0.00
2013-9-9,78.0,70.4,67.0,46.4,39.5,32.0,45,33,18,29.23,29.06,5,1,7,0.00
2013-9-10,83.0,70.9,65.0,50.0,45.7,32.0,51,41,16,29.26,29.18,4,0,5,0.00
2013-9-11,88.0,75.6,67.0,51.8,42.5,32.0,53,34,13,29.23,29.12,5,0,8,0.00
2013-9-12,86.0,73.7,68.0,48.2,40.4,32.0,46,31,16,29.12,28.88,5,0,8,0.00
2013-9-13,80.0,68.5,60.0,37.4,33.3,32.0,36,22,13,29.00,28.82,8,1,10,0.00
2013-9-14,70.0,59.3,51.0,32.0,32.0,32.0,37,24,14,29.21,29.00,7,0,8,0.00
2013-9-15,64.0,52.6,46.0,35.6,32.6,32.0,44,39,30,29.29,29.15,0,0,0,0.00
2013-9-16,73.0,63.4,57.0,41.0,35.6,32.0,47,36,21,29.18,29.15,3,0,5,0.00
2013-9-17,60.0,55.9,49.0,33.8,32.1,32.0,46,31,19,29.38,29.32,5,0,6,0.00
2013-9-18,68.0,66.8,66.0,32.0,32.0,32.0,17,17,17,29.23,29.23,4,1,5,0.00
2013-9-19,72.0,65.7,59.0,41.0,35.2,32.0,46,32,22,29.21,29.12,3,0,4,0.00
2013-9-20,67.0,64.5,62.0,51.8,44.7,35.6,61,48,34,29.15,29.00,2,0,4,0.16
2013-9-21,65.0,62.1,59.0,55.4,52.3,50.0,73,69,61,29.03,28.79,4,0,6,0.55
2013-9-22,63.0,59.0,57.0,50.0,47.2,42.8,73,65,51,29.00,28.79,4,0,7,0.00
2013-9-23,68.0,57.4,53.0,42.8,34.1,32.0,55,37,17,29.12,28.97,4,0,4,0.00
2013-9-25,62.0,58.8,55.0,41.0,39.4,37.4,53,48,39,29.00,29.00,4,0,6,0.00
2013-9-26,72.0,66.6,56.0,44.6,32.7,32.0,51,24,16,29.12,29.00,5,1,6,0.00
2013-9-27,72.0,61.0,49.0,37.4,32.4,32.0,50,31,16,29.26,29.12,6,1,6,0.00
2013-9-28,65.0,58.7,51.0,39.2,33.5,32.0,45,34,18,29.32,29.23,4,0,8,0.00
2013-9-29,70.0,58.3,48.0,33.8,32.0,32.0,48,32,15,29.26,29.09,5,0,8,0.00
2013-9-30,74.0,60.6,49.0,35.6,32.5,32.0,49,33,16,29.15,29.03,4,0,5,0.00
2013-10-1,78.0,64.6,54.0,41.0,34.1,32.0,51,32,15,29.18,29.06,5,0,10,0.00
2013-10-2,80.0,66.7,55.0,37.4,33.5,32.0,47,29,15,29.18,29.06,6,1,10,0.00
2013-10-3,80.0,67.3,58.0,41.0,35.1,32.0,46,31,14,29.18,29.09,4,0,4,0.00
2013-10-4,82.0,68.9,58.0,44.6,36.9,32.0,51,32,14,29.18,29.09,5,0,8,0.00
2013-10-5,84.0,71.5,62.0,44.6,36.8,32.0,46,30,13,29.18,29.06,4,0,5,0.00
2013-10-6,81.0,70.1,58.0,42.8,35.9,32.0,49,29,14,29.09,28.94,7,1,10,0.00
2013-10-7,71.0,63.8,52.0,53.6,41.4,32.0,67,40,19,29.12,28.85,8,1,13,0.91
2013-10-8,66.0,56.7,48.0,32.0,32.0,32.0,37,23,15,29.29,29.09,9,2,13,0.00
2013-10-9,63.0,55.2,48.0,32.0,32.0,32.0,42,28,18,29.32,29.21,8,1,8,0.00
2013-10-10,63.0,56.2,49.0,41.0,34.2,32.0,60,41,25,29.21,29.03,9,2,14,0.55
2013-10-11,71.0,63.9,58.0,32.0,32.0,32.0,35,25,16,29.03,28.97,8,2,12,0.00
2013-10-12,66.0,62.1,59.0,48.2,39.4,32.0,61,43,25,29.18,29.03,5,0,8,0.12
2013-10-13,64.0,60.9,59.0,50.0,48.1,46.4,65,62,54,29.26,29.15,3,0,5,0.00
2013-10-18,64.0,56.6,48.0,32.0,32.0,32.0,40,22,15,29.09,29.00,5,1,10,0.00
2013-10-19,58.0,52.4,46.0,33.8,32.1,32.0,50,39,26,29.03,28.88,4,0,8,0.00
2013-10-20,60.0,49.3,37.0,32.0,32.0,32.0,38,24,16,29.15,28.97,6,1,10,0.00
2013-10-21,64.0,48.6,34.0,32.0,32.0,32.0,45,32,18,29.21,29.03,5,0,7,0.00
2013-10-22,66.0,55.0,46.0,32.0,32.0,32.0,49,30,15,29.03,28.85,7,1,11,0.00
2013-10-23,54.0,48.6,41.0,39.2,33.8,32.0,62,42,20,29.03,28.76,10,2,17,0.20
2013-10-24,49.0,42.5,35.0,32.0,32.0,32.0,27,21,19,29.21,29.03,8,2,14,0.00
2013-10-25,49.0,39.6,33.0,32.0,32.0,32.0,33,24,19,29.38,29.21,8,2,13,0.00
2013-10-26,56.0,42.1,28.0,32.0,32.0,32.0,35,23,17,29.35,29.06,5,1,8,0.00
2013-10-27,63.0,50.7,37.0,32.0,32.0,32.0,32,21,16,29.15,29.06,8,0,15,0.00
2013-10-28,64.0,49.6,36.0,32.0,32.0,32.0,44,32,15,29.29,29.15,4,0,7,0.00
2013-10-29,67.0,57.5,51.0,35.6,32.1,32.0,48,31,17,29.38,29.26,4,0,5,0.00
2013-10-30,66.0,58.2,52.0,39.2,34.8,32.0,51,37,22,29.32,29.18,4,0,4,0.04
2013-10-31,68.0,61.3,56.0,42.8,36.1,32.0,56,37,20,29.21,28.85,7,1,10,0.00
2013-11-1,73.0,65.9,56.0,39.2,32.8,32.0,40,26,16,28.85,28.67,8,2,11,0.04
2013-11-2,65.0,56.4,48.0,32.0,32.0,32.0,29,19,15,29.00,28.73,8,2,14,0.00
2013-11-3,48.0,45.2,44.0,32.0,32.0,32.0,20,20,19,29.03,29.00,0,0,0,0.00
2013-11-4,49.0,42.2,38.0,32.0,32.0,32.0,21,20,19,29.59,29.50,4,0,5,0.00
2013-11-5,53.0,44.0,32.0,32.0,32.0,32.0,37,24,18,29.62,29.47,4,0,5,0.00
2013-11-6,67.0,53.9,46.0,32.0,32.0,32.0,42,30,17,29.47,29.15,4,0,6,0.00
2013-11-7,61.0,48.8,41.0,35.6,32.2,32.0,48,32,17,29.18,29.00,14,2,22,0.00
2013-11-8,50.0,40.8,29.0,32.0,32.0,32.0,25,21,19,29.35,29.18,10,2,15,0.00
2013-11-9,57.0,38.4,27.0,32.0,32.0,32.0,33,24,17,29.35,29.15,5,0,7,0.00
2013-11-10,65.0,49.6,33.0,32.0,32.0,32.0,25,19,15,29.29,29.09,11,3,24,0.00
2013-11-13,45.0,37.2,29.0,32.0,32.0,32.0,23,21,20,29.53,29.44,7,2,14,0.00
2013-11-14,61.0,40.8,27.0,32.0,32.0,32.0,23,20,16,29.44,29.29,7,1,8,0.00
2013-11-15,53.0,37.1,26.0,32.0,32.0,32.0,48,29,18,29.29,29.23,2,0,3,0.43
2013-11-16,54.0,50.6,48.0,41.0,36.4,32.0,64,57,48,29.32,29.23,3,0,4,0.08
2013-11-17,58.0,54.6,52.0,50.0,45.0,41.0,71,68,64,29.26,28.85,6,0,6,0.12
2013-11-18,65.0,57.6,47.0,51.8,34.7,32.0,71,25,15,29.03,28.82,11,5,20,0.08
2013-11-19,51.0,42.8,36.0,32.0,32.0,32.0,22,20,19,29.35,29.03,10,2,12,0.00
2013-11-20,49.0,37.9,30.0,32.0,32.0,32.0,30,23,19,29.50,29.35,9,1,10,0.00
2013-11-21,52.0,44.5,39.0,32.0,32.0,32.0,29,23,21,29.53,29.41,4,0,4,0.00
2013-11-22,66.0,54.9,45.0,32.0,32.0,32.0,36,28,17,29.41,29.09,4,0,8,0.00
2013-11-23,58.0,47.3,32.0,32.0,32.0,32.0,26,21,18,29.26,29.09,10,4,17,0.00
2013-11-24,54.0,36.5,21.0,32.0,32.0,32.0,23,20,18,29.53,29.26,11,3,19,0.00
2013-11-25,54.0,37.6,18.0,32.0,32.0,32.0,23,21,18,29.53,29.35,6,1,7,0.00
2013-11-26,42.0,35.1,30.0,33.8,32.2,32.0,70,47,23,29.38,28.64,7,0,8,2.24
2013-11-27,44.0,34.8,24.0,35.6,32.4,32.0,71,47,23,29.18,28.59,14,5,22,0.20
2013-11-28,42.0,28.4,21.0,32.0,32.0,32.0,33,24,20,29.47,29.18,8,2,13,0.00
2013-11-29,46.0,30.9,19.0,32.0,32.0,32.0,43,28,19,29.68,29.44,6,1,7,0.00
2013-11-30,43.0,29.6,20.0,32.0,32.0,32.0,35,25,20,29.68,29.38,6,1,7,0.00
2013-12-1,58.0,34.8,19.0,32.0,32.0,32.0,44,29,17,29.38,29.06,5,1,6,0.00
2013-12-2,54.0,39.7,27.0,32.0,32.0,32.0,42,28,18,29.06,28.85,4,0,4,0.00
2013-12-3,59.0,43.7,31.0,32.0,32.0,32.0,50,33,17,29.03,28.91,5,0,6,0.00
2013-12-4,63.0,51.3,39.0,33.8,32.0,32.0,47,35,18,29.12,29.00,7,1,8,0.00
2013-12-5,64.0,58.9,54.0,42.8,37.3,33.8,54,44,36,29.12,29.03,6,1,10,0.04
2013-12-6,69.0,62.7,48.0,55.4,44.0,32.0,66,51,23,29.12,28.91,10,2,18,1.10
2013-12-7,48.0,42.5,37.0,35.6,32.3,32.0,68,44,22,29.50,29.09,7,2,13,0.16
2013-12-8,37.0,30.8,28.0,32.0,32.0,32.0,50,38,24,29.50,29.29,8,2,10,0.04
2013-12-9,48.0,37.3,31.0,33.8,32.1,32.0,60,54,40,29.29,29.06,8,1,12,0.28
2013-12-10,42.0,36.1,29.0,32.0,32.0,32.0,65,41,22,29.29,29.00,12,3,22,0.39
2013-12-11,48.0,33.6,26.0,32.0,32.0,32.0,26,22,19,29.41,29.23,11,3,14,0.00
2013-12-12,37.0,29.9,23.0,32.0,32.0,32.0,23,22,20,29.41,29.29,10,3,15,0.00
2013-12-13,49.0,33.5,23.0,32.0,32.0,32.0,23,21,19,29.35,29.23,7,1,9,0.00
2013-12-14,37.0,34.4,31.0,32.0,32.0,32.0,63,42,23,29.32,28.79,7,1,8,0.31
2013-12-15,45.0,37.2,32.0,32.0,32.0,32.0,65,36,20,29.06,28.73,14,5,22,0.00
2013-12-16,48.0,37.5,30.0,32.0,32.0,32.0,30,24,19,29.15,29.03,8,3,12,0.00
2013-12-17,49.0,39.2,27.0,32.0,32.0,32.0,42,29,19,29.12,28.91,13,4,19,0.04
2013-12-18,46.0,34.9,27.0,32.0,32.0,32.0,23,22,19,29.26,29.03,14,3,22,0.00
2013-12-19,67.0,44.1,26.0,32.0,32.0,32.0,23,20,15,29.26,29.15,10,2,13,0.00
2013-12-20,61.0,44.4,30.0,32.0,32.0,32.0,33,22,16,29.21,29.09,5,0,7,0.00
2013-12-21,67.0,53.5,38.0,35.6,32.2,32.0,38,28,17,29.12,29.00,10,2,14,0.00
2013-12-22,66.0,61.1,57.0,50.0,40.9,32.0,70,48,20,29.09,28.94,11,1,17,0.63
2013-12-23,61.0,50.9,35.0,51.8,42.1,32.0,75,63,40,29.23,29.00,10,2,15,1.57
2013-12-24,40.0,30.6,20.0,32.0,32.0,32.0,46,31,20,29.47,29.23,11,4,17,0.00
2013-12-25,37.0,24.0,15.0,32.0,32.0,32.0,26,23,20,29.53,29.38,5,0,8,0.00
2013-12-26,48.0,30.7,16.0,32.0,32.0,32.0,35,25,19,29.41,29.23,10,1,10,0.00
2013-12-27,53.0,33.1,21.0,32.0,32.0,32.0,33,24,18,29.44,29.35,4,0,8,0.00
2013-12-28,58.0,38.3,23.0,32.0,32.0,32.0,33,25,17,29.41,29.21,3,0,4,0.00
2013-12-29,51.0,43.2,38.0,39.2,33.1,32.0,67,56,31,29.21,28.70,11,2,20,1.14
2013-12-30,47.0,41.2,34.0,32.0,32.0,32.0,49,30,19,29.18,28.91,10,2,16,0.00
2013-12-31,45.0,35.3,25.0,32.0,32.0,32.0,42,25,20,29.35,29.15,16,2,17,0.00
2014-1-1,50.0,33.4,23.0,32.0,32.0,32.0,32,24,19,29.38,29.15,7,1,10,0.00
2014-1-2,39.0,31.1,24.0,32.0,32.0,32.0,53,40,25,29.15,28.67,14,1,19,0.12